Wind_Speed
31 31 31 30 30 30 29 29 29 29 29 29 30 31 34 36 38 40 42 45 48 49 50 51 50 50 50 50 51 52 52 51 49 48 47 47 47 47 48 47 47 46 45 44 43 41 41 41 41 40 39 39 37 34 32 31 29 26 24 22 17 13 11 11 10 9 12 13 12 10 8 7 6 4 6 7 10 12 14 17 20 20 17 15 14 16 18 18
33 33 33 32 32 32 32 31 31 30 30 30 30 31 31 33 35 38 41 43 45 48 51 52 52 52 51 51 52 52 52 52 50 49 49 48 48 49 49 48 48 48 47 46 44 43 42 42 41 40 41 41 39 36 34 33 30 28 26 24 19 15 13 14 14 13 13 13 11 8 8 9 5 3 3 5 8 10 13 15 19 20 18 16 14 14 16 18
34 34 34 34 34 34 34 34 33 33 32 31 31 31 32 32 33 35 38 41 43 46 50 52 53 53 53 52 52 53 53 53 52 51 50 50 50 51 50 49 50 50 49 47 46 45 44 44 42 42 43 42 41 38 36 35 32 30 28 26 22 17 13 14 16 16 14 12 10 9 9 9 4 3 3 4 6 8 11 13 17 19 19 17 14 13 15 18
34 35 36 36 36 36 36 36 36 36 35 34 33 32 32 33 34 34 36 38 41 44 47 51 54 54 54 54 53 53 54 54 53 53 52 51 52 52 51 51 51 51 50 49 47 47 46 45 44 44 44 44 43 41 38 36 34 32 30 27 24 17 13 15 16 16 15 13 12 11 7 5 2 1 3 3 3 7 10 12 16 18 19 18 16 13 14 16
34 35 37 37 37 37 37 37 38 38 38 37 36 34 34 34 35 36 36 36 39 43 46 49 53 55 56 55 55 55 54 55 55 54 53 52 53 53 52 52 52 52 51 50 49 49 48 46 46 46 45 45 45 42 40 37 35 34 31 29 25 19 16 17 18 16 15 14 13 12 8 5 3 1 3 2 2 6 9 11 15 17 18 18 17 14 12 15
34 35 37 38 39 39 39 39 39 39 40 40 39 38 36 35 36 37 38 37 37 40 44 48 51 54 57 57 57 56 55 56 56 55 55 54 54 54 54 54 54 53 52 52 51 50 50 48 47 47 46 46 45 43 41 38 37 35 32 30 27 21 19 19 19 18 16 14 13 11 8 8 6 4 5 2 1 5 8 10 13 16 17 18 19 15 12 13
35 36 37 38 39 40 41 41 41 41 41 42 42 41 40 38 38 38 39 39 38 39 42 46 49 52 56 58 58 57 57 57 57 57 56 56 55 55 55 55 55 54 53 53 52 52 51 50 49 48 47 46 46 44 42 40 39 38 35 33 30 24 22 21 20 20 17 15 15 12 10 10 8 7 7 2 2 4 6 9 12 15 16 18 19 17 13 11
36 36 37 38 39 40 41 42 42 42 43 43 43 43 43 42 41 40 39 40 40 41 41 44 48 51 54 58 60 59 59 58 58 58 58 57 57 57 57 57 55 55 54 54 54 54 53 52 50 49 47 47 47 46 44 43 41 40 39 36 32 27 25 24 23 22 18 15 16 14 13 11 9 8 6 2 2 2 5 7 10 13 15 16 19 19 15 12
37 36 36 37 38 39 41 42 43 43 43 44 44 44 44 44 44 43 41 40 41 43 44 44 46 50 53 56 59 61 60 60 59 59 59 59 58 58 58 57 56 56 56 56 56 55 54 53 51 49 48 48 49 48 47 45 43 43 41 38 34 30 28 28 25 22 20 17 16 15 15 14 12 11 8 4 3 3 4 6 9 12 13 15 18 19 18 14
39 39 38 37 37 37 39 40 42 44 44 44 44 45 46 46 45 45 44 42 42 43 46 46 46 48 52 55 58 61 62 61 61 60 60 60 59 59 59 58 57 57 57 57 57 56 55 53 52 51 50 50 50 49 48 47 46 45 43 40 37 33 31 29 25 21 20 20 19 16 17 16 15 14 10 6 6 6 5 5 7 10 12 13 16 18 19 16
43 43 42 41 40 39 39 39 40 43 44 44 44 45 46 47 47 47 46 45 44 44 46 48 48 48 51 54 57 59 62 63 62 62 61 61 61 61 61 60 58 59 59 59 58 57 56 54 53 53 51 51 51 51 50 49 48 47 45 43 40 37 34 30 26 21 19 22 20 16 19 18 16 15 11 8 8 8 6 4 5 7 10 11 14 17 18 17
47 47 47 46 45 44 43 42 42 43 43 44 45 45 46 48 49 48 48 48 47 46 46 49 50 50 51 54 56 58 62 64 64 64 63 63 63 63 62 62 60 60 60 60 59 57 56 55 55 55 54 53 54 53 52 52 50 48 47 45 43 41 38 32 28 24 21 23 20 14 18 20 17 17 14 11 11 8 6 6 4 5 8 10 12 14 16 17
51 51 51 50 49 48 48 47 47 46 45 44 45 46 47 47 49 50 49 49 49 49 48 49 51 53 52 52 55 59 62 65 67 66 66 65 64 64 64 63 62 61 61 60 59 58 58 57 57 57 57 56 55 55 54 54 52 50 48 47 46 44 41 36 30 28 25 24 23 19 20 21 19 19 19 15 12 8 7 7 5 4 7 9 10 12 13 15
53 53 53 52 52 52 52 52 51 49 47 46 45 46 47 48 49 50 51 51 51 52 51 51 52 54 54 53 56 60 62 65 68 68 67 67 66 65 65 65 64 63 62 62 61 60 59 59 58 59 59 58 57 56 56 56 53 52 50 49 49 47 44 38 32 30 28 25 26 24 23 24 21 20 21 18 15 12 9 8 7 5 6 8 9 10 11 13
56 55 55 55 55 55 55 55 53 51 49 47 46 46 47 49 51 51 53 53 53 54 54 53 53 54 55 55 57 61 63 64 67 69 69 68 67 67 67 67 66 65 64 63 62 61 60 60 60 60 61 60 58 58 58 57 55 54 53 52 52 50 46 41 35 32 30 27 26 25 25 26 23 21 21 19 17 15 11 9 9 7 6 7 7 8 9 11
58 57 57 57 57 58 58 57 55 52 50 48 48 48 48 50 52 53 54 55 55 56 56 55 54 54 56 58 59 61 63 64 66 69 70 69 68 68 68 68 67 66 65 63 62 62 62 62 62 62 62 62 60 59 59 59 58 56 55 54 54 52 48 44 39 33 32 30 26 25 25 26 24 21 21 20 17 16 12 10 10 8 6 5 5 7 7 8
61 61 61 61 60 60 59 58 55 52 51 49 49 50 50 50 52 55 55 56 57 57 58 57 56 56 57 60 61 61 62 64 65 67 69 70 69 69 69 70 69 67 65 64 63 63 64 64 64 63 63 63 62 61 61 61 60 58 57 56 55 53 50 47 42 35 32 32 27 26 26 27 25 20 20 20 17 15 12 11 12 10 7 4 3 6 7 6
66 66 65 64 63 61 59 57 55 52 50 50 50 51 52 52 53 55 57 57 58 58 59 59 58 58 58 60 61 61 60 62 64 66 68 70 70 70 71 71 71 68 67 66 66 65 66 66 65 64 63 64 65 64 63 62 61 59 58 57 55 54 51 49 45 37 32 31 28 28 29 28 27 22 20 20 18 17 14 13 13 12 8 5 4 6 6 5
72 71 68 66 63 61 58 55 52 50 50 50 51 52 53 54 55 56 58 59 60 60 60 61 61 59 58 60 62 62 61 62 66 67 67 70 71 72 72 71 71 69 68 68 68 67 67 67 66 65 65 65 67 66 64 63 62 60 59 58 56 55 53 51 47 39 33 31 28 30 31 30 28 24 23 22 20 19 17 15 15 13 10 7 6 7 7 6
76 72 69 65 62 59 55 52 49 48 48 49 51 52 53 55 57 57 58 60 61 61 61 62 62 60 59 62 63 63 63 63 66 69 68 70 72 74 73 72 71 71 71 70 70 69 68 68 67 67 67 67 68 67 65 64 63 61 61 60 57 57 55 52 49 43 37 33 30 31 32 31 29 25 25 25 22 21 19 18 17 15 13 10 8 8 8 7
77 73 68 63 58 54 50 47 45 44 45 47 49 51 53 56 58 58 59 61 62 62 61 62 63 62 61 63 64 64 65 64 66 70 70 70 72 74 73 73 73 73 74 72 71 70 68 68 68 70 70 69 67 66 66 65 64 63 62 61 60 58 57 55 53 47 41 37 34 33 33 32 30 28 27 27 25 23 21 19 19 18 16 13 10 9 10 9
77 70 63 57 52 48 45 42 41 41 42 44 47 49 52 55 57 58 60 61 62 62 62 63 64 64 64 64 65 65 66 66 66 69 71 70 71 73 74 75 75 76 76 74 72 71 70 70 71 72 71 69 67 67 68 67 66 65 64 63 62 60 60 58 56 50 44 42 38 34 34 34 33 31 29 28 28 26 24 22 22 20 18 15 12 11 11 11
74 65 57 50 46 43 40 38 37 37 38 40 43 46 50 53 56 57 59 61 62 62 62 64 65 65 65 65 66 67 68 68 67 69 73 72 72 74 76 76 77 78 77 75 73 72 73 74 74 73 72 70 69 68 69 69 68 67 66 65 64 63 62 60 58 54 48 45 41 35 34 36 36 35 33 29 29 29 27 26 24 22 20 17 15 13 13 13
68 58 51 45 41 38 36 34 33 33 35 37 39 43 46 50 53 56 58 60 62 62 63 64 65 66 66 67 68 69 69 69 69 70 73 75 74 74 77 78 79 78 77 76 75 75 77 77 75 74 73 72 71 69 69 71 71 70 68 68 67 65 63 61 60 59 51 47 45 38 36 37 38 38 37 33 31 31 30 27 26 24 22 20 17 15 15 15
61 52 46 41 37 34 32 30 29 30 32 34 36 39 43 46 50 53 56 59 61 62 63 64 66 67 68 69 70 71 71 71 70 71 73 76 76 75 77 79 79 79 78 78 78 79 80 78 75 74 74 73 72 71 70 71 73 72 71 69 68 67 65 64 64 64 57 51 49 42 37 37 38 38 39 38 35 33 31 29 27 26 24 22 20 17 16 17
55 48 43 37 33 30 28 27 26 27 29 32 34 37 40 43 47 51 54 57 60 61 63 64 66 68 70 71 72 72 72 72 72 73 74 77 78 77 77 78 79 80 80 80 80 82 81 78 77 76 76 74 73 72 72 72 73 75 74 71 70 68 68 68 67 67 63 57 53 46 40 38 38 38 39 40 38 35 33 32 30 28 26 24 22 19 17 17
52 45 39 34 30 27 25 24 23 24 27 29 31 34 37 41 45 49 52 55 58 60 62 64 66 68 70 72 73 74 73 73 74 74 75 77 79 78 77 78 80 81 82 81 82 82 81 79 79 78 77 75 73 73 73 72 73 76 76 74 72 72 71 70 69 69 67 63 58 52 46 42 41 39 38 37 37 36 35 33 33 31 28 26 24 21 19 18
49 42 35 31 27 24 22 21 21 22 24 26 28 31 34 38 42 46 50 53 57 59 61 64 66 68 70 71 73 74 74 74 75 75 76 78 79 80 80 79 80 81 82 81 82 83 82 81 81 81 79 76 75 75 75 75 75 76 78 77 76 74 73 70 70 70 69 67 63 57 51 47 44 42 39 35 34 36 36 34 33 32 30 28 27 24 21 19
46 38 32 28 24 21 19 18 18 19 21 23 25 28 31 35 39 43 47 51 54 57 60 63 66 68 69 71 74 74 74 75 75 76 77 78 80 82 82 81 80 81 81 82 84 84 82 82 83 82 81 79 78 78 77 77 77 76 78 79 78 76 74 72 71 71 70 69 67 62 57 51 47 45 40 35 33 35 37 36 33 31 31 30 30 27 23 19
43 35 30 25 21 18 16 15 15 16 18 19 22 25 28 32 36 40 44 48 51 55 58 61 64 66 68 71 74 75 75 76 75 77 78 80 81 83 84 83 80 79 79 82 85 84 83 84 83 82 81 81 81 80 79 80 79 78 77 78 79 77 76 75 72 71 72 70 68 66 62 55 50 47 43 38 34 34 36 36 33 32 32 31 31 29 25 21
40 33 27 21 18 16 14 13 12 13 14 16 18 21 25 29 33 37 41 45 48 52 56 59 62 65 67 70 72 74 75 75 75 77 79 82 83 83 84 83 81 79 78 81 85 85 85 85 83 83 84 84 83 80 80 82 81 79 77 78 78 76 75 76 74 73 74 72 70 69 66 61 54 50 47 44 40 36 36 36 35 35 35 34 33 31 28 25
38 31 24 19 16 13 11 10 10 11 12 14 16 19 22 25 29 33 37 41 44 48 52 56 60 63 65 68 70 73 75 75 76 77 80 83 85 85 85 85 83 80 79 82 86 87 87 86 85 85 87 87 84 82 82 82 80 79 77 78 78 76 76 78 77 77 77 74 72 71 69 65 60 55 51 50 48 43 38 35 36 37 37 37 36 32 30 28
35 28 22 17 13 11 9 8 8 9 10 12 14 17 20 23 26 29 33 36 40 44 48 52 56 60 63 66 69 71 73 75 77 78 81 84 86 87 88 87 85 83 81 83 85 86 87 87 86 87 88 88 86 83 82 81 79 78 77 77 78 78 79 81 80 79 78 76 73 71 70 67 64 61 55 52 52 50 44 37 35 38 39 38 37 33 30 30
33 26 19 15 11 9 7 6 7 9 10 12 14 16 18 20 23 26 29 32 36 40 44 49 53 57 60 64 67 70 73 75 77 79 81 84 87 89 89 89 88 86 85 85 84 85 86 87 87 87 88 88 87 85 84 83 80 79 78 78 78 78 80 81 81 81 80 78 75 73 71 69 68 65 60 56 55 54 50 44 39 39 40 39 36 33 31 31
31 24 17 13 10 8 7 7 8 9 11 13 15 16 18 19 21 24 27 30 34 37 41 46 51 55 59 62 65 69 72 75 78 79 81 84 87 89 90 91 91 89 88 86 84 84 84 85 86 87 88 88 88 87 86 85 83 80 79 79 79 79 79 79 81 83 82 79 77 75 72 71 70 68 64 59 58 56 53 50 46 42 40 39 37 35 34 33
29 22 16 10 7 7 7 8 9 11 13 14 16 17 18 19 20 22 25 28 31 35 39 44 48 53 57 61 64 68 72 75 77 79 81 83 85 89 91 92 92 91 89 88 85 83 82 84 87 88 88 88 89 89 87 87 85 83 81 80 80 80 80 80 79 80 81 80 78 75 74 73 71 69 66 62 61 60 55 53 51 47 42 39 37 37 36 35
27 20 14 9 6 6 7 8 10 12 14 15 16 17 19 20 21 23 25 28 30 34 38 42 47 51 55 59 63 67 70 73 76 78 80 81 83 87 90 91 91 90 90 89 87 84 83 84 86 88 88 88 90 90 89 89 87 85 83 82 82 81 81 81 80 78 78 81 79 76 76 74 72 71 69 65 62 61 58 54 53 51 47 42 38 37 36 36
26 19 13 10 7 6 7 9 11 13 15 16 16 18 20 22 24 25 27 30 32 35 38 41 45 49 52 56 61 65 67 69 73 76 77 78 80 84 87 89 90 91 90 90 88 87 86 85 85 87 88 89 90 90 90 90 89 86 85 84 83 82 80 81 81 78 77 80 81 79 76 75 74 72 71 69 65 60 58 56 53 52 50 46 41 38 37 37
25 19 13 11 9 8 8 9 11 13 15 16 16 18 20 23 26 28 30 32 35 38 41 43 44 47 50 55 59 62 66 69 71 73 74 76 77 80 84 89 91 91 91 91 90 90 88 86 85 86 87 89 90 90 90 90 89 87 87 86 85 84 82 82 83 81 78 79 81 81 78 77 77 74 72 72 69 64 60 58 55 53 51 48 44 41 40 39
23 19 14 12 10 9 9 9 11 13 15 16 16 17 20 24 27 29 30 33 37 40 42 43 45 46 49 53 57 61 65 69 71 71 72 74 76 78 82 87 90 92 92 93 93 91 90 88 87 86 86 87 88 90 90 90 90 89 89 88 87 85 83 83 83 83 81 78 79 80 80 79 78 77 74 73 72 70 66 62 58 55 52 50 47 44 43 43
23 19 16 13 11 10 10 10 11 13 15 16 17 19 21 25 28 29 30 32 37 40 43 43 44 46 47 51 55 60 64 68 70 72 73 74 75 76 79 83 88 92 93 93 93 93 91 90 89 87 86 86 88 90 91 91 91 91 90 90 89 87 85 84 84 84 82 80 79 79 80 80 79 78 76 76 74 73 71 67 63 60 55 53 51 45 43 44
24 20 17 14 11 11 11 11 12 14 15 17 18 20 22 26 29 30 29 31 35 38 42 44 44 45 46 49 54 58 63 66 69 71 74 75 75 76 77 80 85 90 93 94 94 94 93 91 90 89 87 87 87 89 91 92 92 92 91 90 90 88 87 86 85 84 83 82 80 79 79 80 80 79 79 78 76 74 73 71 69 66 62 58 53 46 44 45
26 21 17 14 12 11 11 12 12 13 15 17 18 20 22 26 28 29 27 28 31 34 38 42 44 45 47 50 53 57 61 64 67 70 72 74 75 76 77 78 82 87 92 94 94 94 94 93 92 91 90 89 88 88 90 92 92 92 92 91 90 89 88 87 87 86 84 83 81 80 79 80 81 81 81 80 79 77 76 75 73 71 67 63 55 47 43 44
28 22 18 14 12 11 11 12 12 13 15 17 18 20 23 26 28 27 25 25 27 30 33 38 42 46 48 51 54 55 57 60 64 67 69 72 75 76 77 78 80 84 90 94 94 94 94 93 93 93 92 90 89 88 89 91 93 93 93 91 90 89 88 88 88 87 85 83 81 80 79 80 81 82 82 82 81 80 79 78 76 73 70 66 60 52 44 40
28 23 19 16 13 11 11 12 12 13 16 17 19 22 24 26 27 26 24 23 25 27 30 33 39 44 48 51 55 56 57 58 61 64 67 70 73 74 76 78 79 82 87 92 95 94 94 93 93 93 92 91 90 87 87 90 92 93 93 91 90 90 89 89 89 87 85 83 81 80 79 80 81 82 82 82 82 82 81 80 78 76 73 68 64 61 54 46
27 22 19 17 15 13 12 11 12 14 17 18 19 23 26 27 27 25 22 20 21 24 27 31 35 40 45 50 54 58 59 58 59 62 66 68 70 72 75 77 79 82 85 89 93 94 95 94 94 93 93 92 91 89 88 89 91 92 93 91 90 90 90 90 89 87 85 83 82 81 79 79 80 82 82 83 83 83 82 82 80 78 76 73 68 65 63 59
28 22 19 18 15 13 12 11 12 15 17 19 21 25 28 27 25 23 21 18 18 21 25 29 32 37 42 47 52 57 60 60 60 62 64 67 69 72 74 77 80 82 85 87 90 93 94 95 95 94 94 93 92 91 90 90 90 90 91 91 90 91 91 91 91 89 86 84 83 82 80 78 79 81 82 83 84 83 82 82 81 79 78 76 73 67 64 64
28 22 18 18 16 14 12 11 12 14 17 20 22 26 28 26 23 21 18 15 16 19 22 26 30 34 39 44 49 54 59 62 63 63 64 66 68 72 75 78 80 82 84 86 88 91 93 95 96 96 95 94 93 92 91 90 89 89 90 90 90 91 91 91 92 90 88 86 84 83 82 80 79 79 81 82 83 83 82 81 81 81 79 78 76 71 65 65
28 22 18 17 17 15 13 12 12 14 17 21 23 26 27 25 22 19 15 14 15 18 21 24 28 32 37 42 47 52 56 61 65 67 67 67 69 72 76 79 81 82 84 85 87 89 92 94 96 96 95 95 94 93 92 91 90 89 89 90 90 91 92 93 93 91 89 88 87 85 83 82 80 79 79 80 81 82 83 83 82 81 80 80 79 76 71 68
28 22 18 18 16 14 13 13 13 15 18 21 23 26 26 23 20 18 14 13 14 16 18 21 25 30 35 40 44 48 53 59 64 68 69 69 70 73 76 79 81 82 83 84 85 87 90 92 94 95 95 95 94 93 92 92 90 90 89 89 89 91 93 94 93 92 91 89 89 87 86 85 83 80 79 80 81 82 82 84 84 83 82 81 80 79 76 74
27 22 19 18 16 14 14 13 13 15 18 20 23 26 26 22 18 16 13 11 12 13 16 19 23 27 32 37 41 45 50 56 62 67 70 71 72 73 76 79 81 82 83 84 85 85 86 89 93 94 94 95 94 93 93 92 92 91 91 89 89 90 93 94 94 94 93 92 91 90 88 88 86 84 82 81 82 83 83 83 84 84 85 84 83 81 80 78
26 22 18 17 16 14 14 13 12 15 18 20 23 26 25 20 16 14 12 10 9 10 14 18 22 24 28 32 36 40 45 51 58 64 69 73 74 74 75 78 80 81 82 83 84 84 83 86 91 94 94 94 94 93 93 92 92 93 93 92 90 90 92 94 94 95 94 94 93 92 91 90 89 87 85 85 85 86 85 84 84 85 86 86 85 85 84 83
Wind_Direction
294 293 292 290 288 286 283 280 277 273 270 266 262 258 254 252 249 246 243 239 236 235 233 231 228 227 226 226 226 227 228 227 226 224 221 219 218 219 218 217 218 217 215 213 211 211 211 210 208 205 205 206 207 207 206 206 203 200 199 194 175 149 152 138 121 115 126 149 166 171 170 208 239 56 39 35 45 37 40 39 32 34 44 55 61 68 72 73
294 292 291 290 288 286 285 282 279 275 271 268 265 262 258 254 250 248 245 242 238 235 233 232 229 227 225 225 225 226 227 227 226 224 222 219 218 219 219 216 217 217 215 213 211 210 211 210 208 205 205 205 206 207 207 206 203 201 199 193 179 159 155 148 142 141 144 161 175 181 186 208 225 87 37 32 49 41 42 40 35 34 41 52 58 65 72 73
292 291 290 288 287 285 283 282 280 277 273 269 265 262 260 257 253 249 246 243 240 236 233 232 231 228 225 224 224 224 225 226 225 224 222 220 218 218 218 217 216 217 215 213 211 210 211 211 208 206 204 205 205 206 207 206 203 202 200 193 184 168 160 159 155 156 158 166 179 189 198 219 231 87 29 17 47 49 46 41 39 36 39 50 55 62 69 73
292 290 289 288 286 284 282 280 279 277 275 271 267 262 259 257 255 251 247 243 241 239 235 232 231 229 226 224 223 224 224 224 224 224 222 220 219 218 218 217 216 216 215 214 211 210 210 211 209 206 204 204 205 205 206 206 202 203 200 194 190 170 159 172 167 164 168 170 179 179 187 226 226 80 343 341 42 58 52 44 44 40 39 48 53 59 66 72
292 290 288 287 285 283 281 279 277 275 274 272 269 265 260 256 254 252 248 244 241 240 237 234 231 230 228 225 223 223 223 223 223 223 223 221 219 219 218 217 217 216 215 214 212 210 210 211 210 207 204 203 204 205 206 205 203 203 201 195 192 172 159 177 176 172 174 174 181 178 174 189 171 247 294 291 38 60 58 48 48 45 41 47 52 57 64 72
298 295 291 288 285 282 280 278 276 274 272 271 269 267 263 258 254 251 248 245 241 239 238 236 232 230 228 226 223 222 222 222 222 222 222 221 220 219 218 217 217 216 215 214 213 211 210 210 210 207 204 203 204 205 206 205 204 204 202 197 195 178 162 176 181 180 182 184 190 190 191 186 167 205 244 242 43 59 62 53 52 50 46 47 52 57 63 72
308 304 300 295 291 287 282 278 275 272 270 269 267 266 264 261 256 252 248 245 241 239 238 236 234 230 228 227 225 222 221 221 221 221 222 221 220 220 218 217 217 216 215 214 213 212 210 209 210 208 205 203 203 205 206 206 205 204 203 199 196 181 163 173 185 182 188 201 206 211 218 207 181 192 218 218 85 62 63 61 56 53 50 48 51 55 61 71
312 309 305 301 297 293 289 284 279 274 270 267 265 264 263 261 258 254 249 246 242 239 238 236 234 232 229 227 226 223 220 220 220 220 220 220 220 220 219 218 216 216 215 213 213 213 211 209 209 208 205 203 203 205 206 206 206 204 203 199 193 181 167 177 188 180 181 194 205 217 224 213 192 187 205 195 126 93 74 70 60 57 53 50 51 53 58 68
312 310 307 304 300 296 291 287 283 278 273 268 264 261 260 259 258 256 252 247 243 240 238 236 233 232 230 228 226 224 221 219 220 219 220 220 219 219 220 218 216 216 215 213 213 213 212 209 208 208 207 203 203 205 206 206 206 206 203 198 192 183 173 180 190 182 177 180 191 215 220 207 199 197 205 201 163 138 102 81 66 60 56 53 52 50 53 63
311 311 309 307 304 301 296 290 285 280 276 271 265 260 257 256 256 255 253 249 244 240 238 235 233 231 230 228 226 225 222 219 219 219 219 219 219 219 220 219 216 216 216 214 213 213 212 210 208 208 208 204 203 204 206 207 207 206 204 200 194 188 181 183 189 185 181 181 182 203 210 204 207 205 199 190 165 152 138 99 75 65 60 56 54 51 51 56
310 310 308 307 305 303 301 297 291 284 277 272 267 262 257 253 252 253 252 250 246 242 238 235 233 230 229 228 226 225 223 220 218 218 218 218 218 218 219 219 216 216 216 215 214 213 212 211 209 209 208 206 204 204 206 207 207 206 204 200 195 191 188 187 188 184 187 188 181 192 201 199 209 208 195 188 170 153 153 129 88 73 67 59 56 54 51 53
309 308 307 306 304 302 301 299 296 291 282 274 267 262 257 253 250 249 249 249 247 243 239 236 233 230 228 227 226 224 224 222 219 217 217 217 218 217 218 218 217 216 216 215 214 213 212 211 210 209 209 207 205 204 206 208 207 206 203 199 195 194 193 191 186 182 190 191 184 193 200 195 202 204 195 191 176 156 161 157 121 84 75 66 61 59 55 55
310 308 307 306 304 302 301 298 296 292 286 278 269 262 256 252 249 246 246 247 246 243 240 236 233 230 227 226 226 224 223 222 219 217 216 216 217 217 217 217 217 216 216 215 214 213 211 211 210 209 209 208 206 204 206 207 207 207 203 198 196 197 196 194 187 186 194 193 190 196 199 194 195 198 196 191 183 177 177 171 156 117 91 78 67 64 61 60
311 309 308 306 304 302 300 298 295 290 284 277 270 263 256 251 247 244 243 243 243 242 240 236 233 230 227 225 225 224 223 221 220 218 216 215 216 216 217 217 217 216 215 215 214 213 211 211 211 210 209 208 206 205 206 207 207 207 204 199 198 199 198 195 190 193 198 196 195 194 191 192 195 200 200 195 195 197 188 181 176 152 111 88 75 69 64 64
312 310 308 306 304 302 299 296 292 287 281 273 267 263 257 251 246 242 240 240 240 240 238 236 233 230 227 225 224 224 223 221 220 219 216 215 215 216 216 216 216 215 215 215 214 213 212 211 211 210 209 208 207 206 206 206 206 207 205 201 200 200 200 197 194 198 201 197 197 195 188 189 194 202 204 203 208 204 191 185 184 169 131 97 85 79 69 65
313 311 308 306 304 301 298 294 289 283 276 269 263 259 255 250 245 240 238 237 238 238 237 235 232 229 227 226 224 223 222 221 220 219 217 215 214 215 216 217 216 215 215 214 213 213 212 211 211 211 210 209 208 207 207 207 206 207 206 204 202 201 201 200 196 198 200 198 199 197 190 189 193 203 210 211 212 206 192 184 188 180 148 111 100 101 87 70
314 312 309 306 303 299 295 291 286 279 272 264 259 255 252 248 244 240 236 235 235 236 236 234 232 229 227 226 225 223 221 221 220 219 218 216 215 214 215 216 216 215 215 214 213 213 213 212 211 211 210 209 209 209 208 208 206 206 206 205 204 202 202 201 198 196 197 199 202 198 191 191 194 199 210 208 204 208 202 187 191 189 166 138 125 123 111 89
317 314 310 306 301 297 293 288 282 276 268 260 254 251 248 245 242 238 235 233 233 233 233 232 231 228 226 226 226 224 221 220 220 220 218 217 215 215 215 216 216 215 214 214 213 213 213 213 211 211 211 210 210 209 208 208 207 206 206 206 205 203 202 201 199 196 193 196 201 200 194 193 193 196 205 205 202 214 216 198 196 194 183 174 162 146 132 116
319 314 310 305 301 296 290 285 279 272 264 257 250 247 245 242 239 236 233 231 231 231 231 230 229 227 225 225 225 224 220 219 219 219 218 216 215 215 214 215 216 216 214 214 214 213 213 213 212 211 211 211 211 209 207 207 207 207 207 207 208 206 204 203 201 198 194 195 200 204 200 195 194 198 206 213 214 217 217 210 202 198 196 193 182 168 152 142
319 314 310 305 300 295 289 282 275 268 261 254 248 244 241 239 236 233 230 230 229 229 228 229 228 226 224 224 224 223 220 217 217 218 217 216 215 215 214 214 215 216 215 214 214 213 213 213 212 212 212 211 211 209 207 207 208 208 207 208 208 207 206 205 204 202 199 199 202 204 201 195 194 197 207 219 223 216 213 213 204 199 205 204 195 183 170 162
320 315 310 305 300 294 288 281 273 266 259 253 247 242 238 236 233 230 228 227 227 227 226 226 226 225 223 223 222 222 221 218 216 217 217 216 215 214 214 213 214 215 215 214 214 214 213 213 213 213 212 211 210 209 208 208 209 208 208 208 209 209 208 207 206 203 201 201 201 201 198 192 192 197 206 215 218 214 209 210 205 201 206 209 205 195 183 175
320 315 310 305 299 293 287 280 273 265 258 252 246 240 236 233 231 228 226 225 225 224 224 223 223 223 221 221 221 221 221 218 215 216 217 216 215 214 214 213 213 214 215 214 213 213 213 213 213 213 213 211 210 209 209 209 209 208 208 208 209 210 209 208 205 202 202 202 200 200 197 192 193 196 203 209 214 215 210 206 205 203 205 208 206 199 191 183
321 315 310 305 300 293 287 280 273 265 258 251 244 239 234 230 228 226 224 224 223 222 222 221 221 221 220 220 219 220 220 218 215 214 215 215 214 214 213 213 213 214 214 214 213 213 214 214 213 213 212 211 210 210 210 210 210 209 208 208 209 211 210 207 204 202 202 203 199 199 198 195 195 195 198 206 213 216 212 206 205 205 206 206 203 199 196 191
321 316 312 307 301 294 287 280 272 264 256 249 243 237 232 228 226 224 223 222 221 221 220 219 219 219 219 218 218 218 219 218 216 214 214 214 214 213 213 213 212 213 213 213 213 213 214 214 213 213 212 211 210 210 210 210 210 209 208 209 209 211 210 207 206 205 203 202 199 199 200 198 197 195 197 204 211 215 215 210 204 204 207 206 204 200 198 196
322 318 313 308 301 294 287 279 270 262 254 247 240 235 230 227 224 222 221 220 220 219 218 218 217 217 217 217 216 217 217 217 216 214 213 213 214 214 213 212 212 212 213 213 213 213 215 214 214 214 213 211 210 210 210 210 211 210 210 210 210 211 210 207 208 208 205 203 199 198 199 199 199 199 200 205 210 215 216 212 206 204 206 206 205 203 199 199
324 320 315 309 302 295 288 280 270 260 252 244 238 233 229 225 222 221 220 219 219 218 217 216 216 216 216 216 216 215 216 216 215 214 213 212 213 214 214 213 212 212 212 212 213 214 214 214 214 214 213 212 211 211 211 210 211 212 211 210 210 211 211 208 207 208 208 206 202 199 198 198 199 201 204 208 212 215 217 216 212 209 207 206 206 205 201 201
327 322 316 310 303 296 289 280 269 259 250 243 237 232 228 225 222 220 219 219 218 216 215 215 215 215 215 215 215 215 214 215 215 214 213 212 212 213 214 214 213 212 212 212 213 214 214 214 214 215 214 212 211 211 211 211 212 212 212 211 211 211 212 210 208 209 210 208 206 203 200 200 201 203 206 209 212 216 217 218 215 212 210 207 206 205 201 202
329 323 317 311 304 297 289 279 268 258 249 242 236 231 227 224 222 220 219 218 217 216 215 214 214 214 214 214 215 215 214 214 215 214 213 212 211 212 213 214 213 212 212 212 214 214 213 214 215 215 214 212 211 212 211 211 212 212 212 212 212 211 211 210 210 211 212 211 210 206 203 203 203 205 207 208 210 213 214 214 213 211 210 208 205 204 200 201
331 325 319 313 306 298 289 277 266 255 247 241 235 230 226 224 222 220 219 217 217 215 214 214 213 213 213 213 215 214 213 214 214 214 214 213 211 212 213 213 213 212 211 212 214 214 213 214 215 215 214 212 211 212 211 212 212 212 213 214 213 211 211 211 211 213 215 214 212 209 206 205 204 205 208 208 209 211 212 213 211 209 210 208 206 205 200 198
332 327 321 315 308 300 289 276 263 253 245 238 234 229 225 223 221 220 219 218 216 215 214 213 213 213 212 213 214 214 213 213 213 214 214 214 212 212 212 213 213 212 212 213 214 213 213 214 215 216 216 214 212 211 211 212 212 211 212 214 214 212 211 211 211 214 216 217 215 211 208 206 205 205 206 209 209 211 215 215 211 208 208 207 208 209 203 197
334 329 324 319 312 303 289 273 259 249 241 235 232 230 227 224 221 220 220 219 217 215 214 213 213 212 212 213 213 213 213 213 213 214 214 214 213 212 212 213 213 212 212 213 214 213 213 213 214 215 217 216 214 212 212 213 212 211 212 214 214 213 212 211 212 215 216 217 216 214 212 209 208 208 208 212 213 212 216 217 212 208 207 207 208 211 206 199
335 331 327 323 317 305 289 272 256 245 239 234 232 231 229 227 224 222 221 220 218 216 216 214 213 213 212 213 213 213 213 213 213 213 213 214 213 212 212 213 213 212 212 214 214 213 213 213 213 214 216 216 214 213 214 214 212 212 213 214 214 214 213 212 213 215 215 215 216 216 215 213 212 211 210 213 216 213 210 212 213 209 209 211 212 212 208 201
336 333 329 325 316 305 290 270 255 244 240 238 236 234 233 230 228 225 223 222 220 218 217 216 215 214 213 213 213 213 213 213 213 213 213 213 213 212 211 211 212 213 213 214 214 213 213 213 213 214 216 216 214 213 214 214 213 213 213 214 215 215 215 214 214 216 216 215 216 217 217 215 214 214 212 213 217 216 211 210 213 211 212 216 217 215 212 205
336 334 329 323 314 304 290 270 255 247 245 245 243 241 237 234 232 229 226 224 221 219 217 216 215 214 214 214 214 213 214 214 213 213 213 213 213 212 211 210 211 212 214 214 214 214 213 213 214 215 216 216 215 213 214 214 213 213 214 214 215 215 216 216 216 216 216 215 216 216 217 217 215 215 216 215 216 218 216 215 215 212 212 215 216 215 214 209
337 333 328 320 312 303 292 278 265 257 255 253 248 245 241 237 234 232 229 226 223 221 219 217 216 214 214 214 214 214 214 214 213 213 213 213 213 213 212 211 211 212 213 213 214 214 214 214 215 215 216 217 216 215 214 214 213 213 214 214 215 215 216 216 217 217 216 216 216 215 216 218 217 216 216 216 216 218 219 217 214 212 211 213 214 213 214 213
336 332 324 317 311 302 292 280 273 268 263 256 249 244 241 237 234 233 233 231 228 225 221 219 217 215 214 213 214 214 215 215 214 214 214 213 213 213 212 212 211 212 213 213 214 214 214 215 215 216 216 217 217 216 215 215 214 212 213 214 215 216 216 216 217 218 216 216 217 217 217 218 218 217 216 215 214 215 218 218 216 215 215 214 214 214 215 216
336 330 320 312 306 296 288 282 279 275 269 259 248 242 238 235 232 231 233 233 233 230 226 222 219 217 215 214 214 215 215 216 216 215 215 214 214 213 213 213 212 212 213 213 214 214 215 215 215 216 216 217 217 217 216 216 214 213 213 214 214 216 216 216 217 218 217 217 217 217 218 218 219 218 216 215 213 213 217 219 218 219 219 216 215 217 219 219
335 327 314 305 297 288 289 287 283 278 271 262 249 240 235 232 229 228 229 231 232 233 231 228 223 219 216 215 215 215 215 217 217 217 216 215 216 215 214 213 213 212 212 213 214 215 215 215 216 216 216 217 217 217 217 217 216 214 214 214 214 215 217 216 217 218 218 218 217 217 217 218 219 219 217 215 214 214 216 219 220 220 219 218 218 219 222 223
332 323 311 301 294 285 283 282 280 276 271 262 250 240 237 236 234 231 230 232 233 234 233 231 228 222 218 216 215 215 214 215 217 217 217 216 216 216 215 214 213 213 213 213 214 215 216 216 216 216 216 216 217 217 218 218 217 216 215 215 214 215 216 216 216 217 218 218 218 217 217 218 219 219 218 216 216 216 218 220 221 218 217 218 220 222 226 229
329 318 308 298 290 283 278 276 279 278 273 266 258 250 247 247 246 243 240 239 240 239 237 235 232 227 222 219 216 215 215 215 215 215 216 216 216 216 216 215 214 213 213 213 214 215 216 216 217 217 217 217 217 217 217 218 218 217 216 216 215 215 216 217 217 217 218 219 219 219 218 219 219 219 219 218 217 217 219 221 220 218 219 220 221 224 229 232
328 314 303 295 286 280 278 279 283 283 279 272 267 262 259 259 258 255 250 247 245 243 241 238 235 231 227 223 219 216 215 215 215 214 214 214 215 216 216 215 214 214 213 213 214 214 215 217 217 217 217 217 217 217 217 218 219 218 217 217 217 216 216 217 217 217 217 218 219 219 219 219 220 219 219 219 219 218 219 220 220 220 221 222 223 226 228 229
328 313 301 292 281 275 277 282 286 287 282 274 271 270 270 271 270 266 260 253 248 243 240 238 235 231 228 226 223 219 216 215 215 215 214 214 213 214 215 215 215 214 214 214 214 214 215 216 217 218 218 217 217 217 217 218 219 219 218 217 217 217 216 216 217 217 217 217 218 219 219 219 220 220 220 220 220 219 219 219 220 222 223 224 224 225 225 225
329 317 305 291 277 272 274 280 285 288 283 277 277 280 283 285 283 278 271 262 253 244 237 234 232 229 226 224 224 222 218 215 214 215 215 214 214 213 213 214 215 215 214 214 214 214 215 216 217 218 218 218 217 217 217 218 219 220 219 217 217 218 218 218 218 217 217 217 218 218 219 219 220 220 221 221 220 220 219 219 220 222 225 225 223 221 223 225
329 320 309 294 279 273 275 282 289 292 289 287 289 292 295 297 294 289 281 271 260 249 238 231 227 225 223 222 222 223 220 216 214 214 215 215 215 214 213 212 213 214 215 215 214 214 215 215 217 218 218 219 218 217 217 218 219 220 220 218 218 218 218 219 220 219 218 218 218 219 219 220 220 220 221 221 221 221 220 220 221 222 224 224 221 219 219 221
329 320 311 299 288 283 283 288 294 296 296 297 302 306 308 308 304 297 288 275 261 249 239 231 225 222 220 219 219 220 220 217 213 212 213 215 215 214 214 213 213 213 214 214 214 214 214 215 216 218 219 219 219 218 218 219 220 220 220 219 218 218 218 219 220 220 220 219 218 218 220 221 221 220 220 221 222 222 221 221 222 222 223 222 221 218 216 214
329 321 310 301 294 292 293 296 300 302 303 306 312 316 318 316 308 300 291 276 258 245 235 229 224 220 218 217 216 216 217 216 213 210 211 213 214 214 214 214 213 213 213 214 214 214 215 215 216 217 218 219 219 219 219 220 220 220 220 220 219 219 219 219 220 220 220 220 219 219 220 221 222 222 220 220 221 222 222 222 222 222 222 222 221 219 216 214
330 323 311 300 295 294 296 300 304 304 308 313 319 323 323 320 310 301 293 278 257 241 231 226 222 218 216 215 215 214 214 215 213 210 209 210 212 213 213 213 213 213 213 213 213 214 215 215 216 216 217 218 219 219 219 220 220 220 221 221 220 220 219 220 220 220 220 220 220 220 220 221 223 224 223 221 221 221 221 222 222 222 221 221 220 219 218 216
330 324 310 299 296 297 299 301 303 307 314 321 325 328 328 323 313 303 294 277 255 239 229 224 220 217 215 214 214 212 211 212 212 211 209 207 209 211 212 213 213 213 213 212 212 213 214 215 216 216 217 218 219 219 220 220 220 220 220 221 221 221 220 221 220 220 219 220 220 220 220 220 221 223 224 223 222 221 221 221 222 222 221 220 219 218 216 215
329 323 308 297 297 300 303 303 306 315 323 327 328 331 332 327 317 307 294 274 255 239 227 222 219 217 214 213 213 212 210 210 210 211 209 207 207 209 211 213 213 213 213 212 212 212 214 215 216 216 217 218 219 219 220 221 221 220 220 221 221 222 221 221 221 220 220 220 220 220 220 221 220 222 224 225 224 222 221 220 220 220 220 220 218 217 214 213
327 321 306 297 298 302 304 304 310 322 327 328 330 334 336 331 321 312 298 276 258 242 228 221 220 219 216 214 213 211 210 209 210 210 210 208 206 208 210 212 213 214 213 213 212 213 214 215 216 216 217 217 218 219 220 220 221 221 221 221 221 222 222 222 221 221 220 220 221 220 220 221 221 221 222 224 224 223 222 222 221 220 219 218 217 216 215 214
324 318 304 297 299 302 301 303 313 324 327 329 332 337 340 335 325 317 304 283 263 244 226 218 217 219 219 217 214 212 211 209 209 210 210 209 208 207 209 211 213 213 214 213 213 213 214 215 216 216 217 217 217 218 219 220 221 221 221 221 221 222 223 223 222 222 221 221 221 221 220 220 220 220 221 222 223 223 222 222 222 221 220 219 218 217 216 215
320 316 302 294 296 298 298 301 313 323 327 330 335 340 343 339 331 324 313 292 270 242 221 215 216 216 217 218 215 212 211 210 209 210 210 210 210 209 209 211 213 213 214 214 214 214 214 216 217 217 217 217 217 218 219 220 221 221 221 221 220 221 223 223 223 222 222 221 221 221 221 220 220 221 221 222 223 223 222 221 222 222 222 220 219 218 217 216
Height
10900 10899 10898 10897 10896 10896 10895 10895 10894 10894 10894 10893 10894 10894 10895 10895 10896 10898 10899 10901 10903 10905 10906 10908 10910 10912 10914 10917 10920 10922 10926 10930 10933 10937 10940 10942 10945 10947 10949 10952 10955 10958 10961 10964 10967 10970 10973 10975 10978 10982 10985 10987 10989 10992 10995 10997 11000 11002 11003 11006 11008 11010 11011 11012 11013 11014 11014 11015 11015 11016 11017 11018 11017 11016 11016 11015 11013 11012 11011 11010 11009 11007 11005 11004 11002 11001 10999 10999
10897 10895 10894 10893 10893 10892 10891 10891 10890 10890 10890 10890 10890 10890 10890 10891 10891 10892 10894 10896 10897 10899 10901 10903 10905 10907 10909 10912 10915 10918 10921 10925 10929 10933 10935 10938 10941 10942 10944 10949 10951 10954 10958 10961 10964 10967 10970 10972 10976 10980 10982 10984 10987 10990 10993 10996 10999 11001 11003 11006 11008 11009 11011 11012 11013 11013 11015 11016 11016 11017 11018 11018 11017 11016 11016 11015 11015 11014 11013 11012 11011 11009 11007 11005 11004 11003 11001 11000
10893 10892 10891 10890 10889 10888 10887 10886 10886 10885 10885 10885 10885 10886 10886 10886 10886 10887 10889 10890 10892 10894 10895 10897 10899 10902 10904 10907 10909 10913 10916 10920 10924 10928 10930 10934 10936 10937 10941 10945 10947 10950 10954 10958 10961 10965 10967 10969 10973 10976 10979 10982 10985 10988 10991 10994 10997 10999 11001 11005 11007 11009 11010 11012 11013 11013 11014 11016 11016 11017 11018 11018 11017 11016 11016 11016 11016 11015 11014 11014 11013 11011 11009 11006 11005 11004 11002 11001
10890 10889 10887 10886 10885 10884 10883 10882 10881 10881 10880 10880 10881 10881 10881 10881 10881 10882 10883 10885 10887 10888 10890 10891 10894 10896 10899 10901 10904 10907 10911 10915 10919 10922 10925 10929 10931 10933 10937 10940 10943 10946 10951 10955 10958 10961 10963 10966 10970 10973 10976 10979 10982 10986 10989 10992 10996 10998 11000 11004 11006 11008 11010 11011 11012 11012 11013 11014 11015 11016 11017 11017 11017 11017 11017 11017 11017 11016 11015 11015 11014 11012 11010 11008 11006 11005 11004 11002
10888 10886 10884 10882 10881 10880 10879 10878 10877 10876 10876 10875 10875 10876 10876 10876 10876 10876 10877 10879 10881 10882 10884 10886 10888 10891 10893 10896 10899 10902 10906 10910 10913 10917 10921 10925 10927 10929 10933 10936 10939 10943 10947 10951 10954 10957 10960 10963 10966 10970 10973 10977 10981 10985 10988 10991 10995 10997 10999 11003 11005 11007 11009 11010 11011 11012 11013 11014 11015 11015 11016 11017 11017 11017 11017 11018 11018 11017 11016 11016 11015 11014 11012 11010 11007 11006 11005 11003
10885 10883 10881 10879 10877 10876 10875 10874 10873 10872 10871 10870 10870 10870 10871 10871 10871 10871 10872 10873 10875 10877 10878 10880 10882 10885 10887 10890 10893 10897 10900 10904 10908 10912 10916 10920 10922 10925 10929 10931 10934 10939 10944 10947 10951 10954 10957 10960 10963 10967 10971 10975 10979 10983 10986 10990 10993 10995 10998 11001 11003 11005 11007 11009 11010 11011 11012 11013 11014 11015 11016 11016 11017 11018 11018 11018 11018 11017 11017 11017 11016 11015 11014 11012 11009 11008 11007 11006
10881 10879 10877 10875 10873 10872 10870 10869 10868 10867 10866 10865 10865 10865 10865 10865 10865 10865 10866 10867 10869 10871 10872 10873 10876 10879 10881 10884 10888 10891 10895 10898 10902 10906 10910 10914 10917 10920 10924 10927 10930 10935 10940 10943 10947 10950 10953 10956 10960 10964 10969 10973 10977 10981 10984 10988 10991 10993 10995 10998 11001 11003 11006 11008 11008 11009 11011 11012 11013 11015 11016 11016 11017 11018 11019 11019 11018 11018 11018 11017 11017 11016 11015 11014 11012 11010 11009 11008
10876 10874 10872 10870 10868 10866 10865 10864 10863 10862 10861 10860 10860 10859 10859 10859 10859 10859 10860 10862 10863 10865 10866 10867 10870 10873 10875 10878 10882 10886 10889 10892 10896 10901 10905 10909 10913 10916 10919 10922 10927 10931 10935 10939 10943 10946 10949 10953 10957 10962 10966 10971 10975 10979 10982 10985 10988 10990 10992 10995 10999 11002 11004 11005 11004 11005 11007 11009 11012 11013 11015 11016 11016 11017 11019 11018 11018 11018 11018 11018 11017 11016 11016 11015 11013 11012 11011 11010
10870 10868 10866 10864 10863 10861 10859 10857 10856 10855 10854 10854 10854 10853 10853 10852 10852 10853 10854 10856 10857 10859 10859 10861 10863 10866 10869 10872 10876 10880 10883 10887 10891 10895 10899 10903 10908 10911 10914 10918 10924 10927 10930 10934 10938 10941 10945 10950 10955 10959 10964 10968 10972 10975 10979 10982 10985 10988 10991 10994 10998 11001 11002 11003 11004 11005 11006 11008 11010 11011 11013 11015 11016 11017 11018 11018 11018 11018 11018 11018 11018 11017 11017 11016 11015 11014 11012 11011
10863 10861 10859 10857 10855 10853 10852 10851 10849 10848 10847 10847 10847 10847 10847 10846 10846 10846 10847 10849 10851 10852 10853 10854 10857 10860 10863 10866 10870 10873 10877 10881 10885 10889 10894 10898 10902 10906 10909 10914 10919 10922 10925 10929 10933 10938 10943 10948 10953 10956 10960 10965 10968 10972 10975 10978 10981 10984 10988 10993 10996 10999 11000 11002 11005 11007 11008 11007 11008 11009 11012 11013 11014 11015 11017 11018 11018 11018 11018 11018 11018 11018 11018 11017 11016 11015 11014 11013
10857 10854 10851 10849 10846 10844 10843 10842 10841 10839 10839 10839 10839 10839 10839 10839 10839 10840 10840 10842 10843 10845 10846 10848 10850 10853 10856 10859 10863 10867 10871 10875 10879 10883 10887 10891 10895 10900 10903 10908 10914 10917 10920 10925 10929 10934 10940 10945 10949 10953 10957 10961 10965 10968 10971 10973 10977 10981 10985 10990 10994 10997 10999 11001 11004 11007 11007 11007 11007 11008 11010 11011 11013 11015 11016 11018 11019 11019 11018 11018 11018 11019 11018 11018 11017 11016 11015 11014
10850 10847 10844 10841 10838 10835 10833 10832 10831 10830 10829 10829 10830 10831 10831 10832 10832 10833 10833 10834 10836 10837 10839 10840 10843 10846 10849 10853 10857 10861 10864 10868 10872 10876 10880 10885 10889 10893 10898 10902 10908 10911 10915 10920 10926 10931 10937 10941 10945 10949 10952 10956 10960 10964 10968 10971 10975 10979 10982 10987 10991 10994 10996 10999 11003 11006 11006 11006 11006 11007 11008 11009 11012 11015 11016 11017 11018 11019 11019 11018 11018 11019 11019 11019 11018 11017 11017 11016
10842 10839 10835 10832 10829 10826 10824 10822 10821 10820 10819 10819 10819 10820 10822 10823 10824 10825 10826 10826 10827 10829 10831 10833 10835 10838 10842 10847 10851 10853 10856 10860 10864 10869 10873 10878 10883 10887 10892 10897 10902 10907 10911 10916 10922 10927 10932 10936 10940 10944 10948 10951 10956 10961 10964 10967 10972 10976 10979 10984 10988 10991 10994 10997 11002 11004 11003 11004 11006 11006 11008 11009 11011 11014 11015 11016 11018 11018 11019 11019 11019 11019 11019 11019 11019 11019 11018 11017
10833 10830 10826 10823 10820 10817 10814 10812 10810 10809 10808 10808 10808 10809 10811 10813 10815 10816 10817 10818 10819 10820 10822 10824 10827 10830 10835 10840 10842 10844 10848 10852 10857 10862 10867 10872 10877 10882 10886 10891 10895 10901 10905 10911 10917 10922 10927 10931 10936 10940 10943 10947 10952 10957 10960 10964 10969 10973 10977 10981 10984 10988 10991 10996 11000 11001 11001 11003 11004 11005 11007 11009 11010 11012 11013 11015 11016 11018 11019 11019 11019 11019 11020 11020 11020 11019 11019 11018
10824 10820 10817 10813 10810 10806 10803 10801 10799 10797 10797 10797 10797 10798 10800 10802 10804 10806 10807 10809 10809 10811 10813 10816 10819 10823 10828 10832 10833 10836 10840 10846 10851 10856 10861 10866 10871 10876 10880 10884 10889 10895 10900 10906 10912 10918 10923 10927 10931 10935 10939 10944 10948 10953 10956 10960 10965 10969 10973 10977 10981 10985 10989 10993 10997 10999 10999 11001 11004 11005 11007 11008 11009 11011 11013 11014 11016 11017 11018 11018 11019 11020 11020 11020 11020 11020 11020 11019
10814 10810 10806 10803 10799 10795 10791 10788 10787 10785 10784 10785 10785 10786 10788 10790 10792 10795 10797 10799 10800 10802 10805 10808 10812 10816 10820 10822 10824 10828 10834 10840 10845 10850 10856 10861 10866 10870 10874 10878 10884 10890 10896 10902 10908 10913 10918 10921 10925 10930 10935 10940 10944 10949 10952 10956 10961 10965 10970 10974 10978 10983 10987 10991 10994 10996 10998 11000 11003 11005 11007 11008 11009 11010 11012 11013 11015 11017 11017 11018 11019 11020 11020 11021 11021 11021 11021 11020
10803 10799 10794 10790 10786 10782 10778 10775 10773 10772 10772 10772 10773 10774 10776 10778 10781 10784 10787 10789 10791 10793 10796 10800 10804 10808 10812 10814 10817 10822 10828 10835 10840 10845 10850 10856 10860 10864 10869 10873 10877 10884 10892 10898 10903 10907 10911 10915 10921 10926 10930 10936 10940 10944 10947 10951 10956 10961 10967 10971 10976 10980 10984 10988 10991 10994 10997 11000 11002 11005 11007 11007 11008 11010 11011 11013 11015 11016 11017 11017 11018 11019 11020 11020 11021 11022 11022 11021
10791 10785 10780 10776 10771 10767 10763 10761 10759 10758 10758 10758 10759 10761 10763 10766 10769 10772 10775 10778 10781 10784 10787 10791 10795 10799 10804 10807 10810 10816 10824 10830 10835 10839 10845 10850 10855 10858 10862 10867 10872 10880 10887 10892 10896 10901 10905 10910 10916 10922 10926 10932 10934 10937 10943 10948 10953 10960 10965 10969 10973 10978 10982 10986 10989 10992 10996 10999 11001 11004 11005 11006 11008 11010 11011 11012 11014 11016 11017 11017 11018 11019 11019 11020 11021 11022 11022 11022
10778 10772 10766 10761 10756 10751 10748 10746 10744 10743 10743 10744 10745 10748 10750 10753 10756 10759 10764 10767 10770 10774 10777 10781 10785 10791 10797 10800 10803 10809 10817 10824 10827 10831 10837 10843 10847 10851 10857 10863 10868 10875 10881 10885 10890 10895 10900 10905 10912 10917 10921 10924 10927 10932 10940 10945 10951 10957 10962 10966 10971 10975 10979 10984 10987 10990 10993 10996 11000 11002 11004 11005 11007 11009 11011 11012 11012 11015 11016 11017 11018 11018 11019 11020 11021 11022 11022 11022
10764 10757 10751 10745 10739 10735 10732 10730 10729 10729 10729 10730 10732 10734 10737 10739 10742 10747 10752 10756 10759 10764 10768 10773 10777 10784 10789 10791 10795 10801 10808 10815 10819 10822 10828 10835 10839 10844 10851 10857 10863 10868 10874 10879 10885 10890 10895 10901 10907 10910 10912 10916 10922 10930 10937 10942 10947 10953 10957 10962 10967 10971 10975 10980 10984 10987 10989 10992 10996 10999 11001 11004 11006 11008 11010 11011 11011 11013 11015 11016 11017 11018 11018 11019 11020 11021 11022 11022
10750 10742 10736 10730 10724 10719 10716 10715 10714 10714 10715 10716 10718 10721 10723 10726 10730 10735 10741 10744 10748 10753 10759 10764 10769 10775 10780 10783 10788 10793 10799 10806 10812 10816 10821 10827 10833 10839 10845 10851 10856 10860 10865 10872 10879 10885 10891 10896 10899 10901 10905 10912 10920 10928 10933 10938 10942 10948 10954 10959 10963 10967 10971 10975 10978 10982 10986 10989 10992 10995 10998 11002 11005 11006 11008 11008 11009 11010 11013 11015 11016 11017 11018 11019 11020 11021 11022 11023
10735 10727 10720 10715 10710 10706 10703 10702 10702 10702 10702 10703 10705 10708 10710 10714 10718 10724 10729 10733 10737 10743 10750 10755 10759 10765 10771 10775 10780 10785 10790 10797 10805 10809 10814 10821 10828 10833 10838 10843 10847 10851 10857 10866 10874 10880 10886 10889 10890 10894 10901 10910 10917 10923 10928 10933 10938 10943 10950 10955 10958 10962 10964 10968 10973 10979 10982 10985 10989 10993 10996 11000 11002 11003 11004 11005 11007 11008 11011 11013 11014 11015 11016 11018 11019 11021 11022 11023
10720 10713 10706 10701 10697 10693 10691 10690 10690 10691 10691 10692 10694 10696 10699 10703 10708 10713 10718 10723 10728 10734 10741 10745 10751 10757 10763 10768 10773 10777 10781 10788 10796 10801 10806 10813 10819 10824 10830 10835 10839 10844 10852 10861 10868 10874 10877 10878 10882 10889 10897 10905 10912 10917 10923 10928 10933 10938 10944 10948 10951 10955 10958 10964 10971 10975 10977 10981 10987 10991 10994 10996 10998 11000 11001 11003 11005 11007 11009 11011 11012 11014 11015 11017 11018 11020 11022 11023
10707 10700 10694 10690 10686 10683 10681 10681 10681 10681 10681 10682 10684 10686 10690 10694 10698 10703 10707 10712 10718 10725 10731 10736 10742 10748 10754 10759 10763 10767 10772 10779 10787 10794 10799 10804 10810 10816 10821 10826 10832 10839 10847 10854 10861 10865 10865 10869 10877 10885 10892 10899 10905 10912 10918 10923 10927 10932 10938 10942 10946 10949 10955 10962 10966 10969 10973 10977 10982 10986 10988 10992 10995 10997 10999 11000 11003 11005 11008 11010 11011 11013 11014 11016 11017 11019 11020 11022
10695 10689 10684 10680 10677 10674 10673 10672 10672 10672 10672 10673 10675 10678 10681 10685 10689 10693 10698 10703 10709 10715 10721 10727 10733 10738 10744 10748 10753 10758 10764 10771 10778 10786 10791 10796 10803 10809 10813 10819 10827 10833 10839 10846 10852 10854 10857 10865 10875 10880 10886 10893 10901 10907 10912 10916 10921 10926 10932 10937 10942 10946 10951 10956 10959 10963 10969 10974 10978 10981 10984 10988 10992 10995 10997 10999 11002 11004 11007 11009 11011 11012 11013 11015 11016 11018 11019 11021
10685 10679 10675 10671 10669 10666 10665 10665 10665 10665 10665 10666 10668 10671 10674 10677 10681 10685 10689 10694 10699 10706 10713 10719 10724 10729 10734 10739 10744 10750 10756 10762 10769 10776 10783 10789 10795 10801 10807 10813 10819 10825 10831 10837 10842 10845 10852 10862 10869 10873 10879 10888 10896 10901 10906 10911 10916 10920 10924 10931 10938 10941 10945 10949 10953 10958 10964 10969 10974 10977 10980 10984 10988 10991 10994 10997 11000 11003 11005 11007 11009 11011 11012 11013 11015 11016 11018 11020
10676 10671 10667 10664 10662 10660 10659 10658 10658 10658 10659 10660 10662 10665 10667 10670 10674 10678 10682 10686 10691 10698 10705 10710 10715 10720 10726 10731 10736 10741 10748 10755 10762 10768 10775 10782 10788 10795 10801 10806 10812 10818 10824 10831 10836 10840 10849 10857 10861 10866 10873 10882 10891 10896 10901 10906 10909 10913 10918 10924 10930 10933 10938 10944 10949 10954 10959 10965 10969 10973 10977 10981 10984 10987 10990 10994 10998 11001 11003 11005 11007 11009 11010 11012 11013 11015 11017 11019
10669 10664 10661 10658 10656 10654 10654 10653 10653 10653 10653 10655 10657 10659 10662 10665 10668 10672 10676 10679 10685 10691 10696 10701 10707 10712 10719 10724 10728 10734 10743 10748 10753 10761 10767 10774 10781 10788 10792 10797 10804 10811 10819 10826 10828 10833 10843 10849 10853 10859 10866 10876 10883 10887 10892 10898 10902 10906 10912 10916 10921 10927 10934 10942 10947 10951 10955 10960 10964 10969 10974 10977 10981 10984 10988 10992 10995 10998 11001 11003 11005 11007 11008 11010 11012 11013 11015 11018
10663 10659 10655 10653 10651 10650 10649 10648 10649 10649 10649 10651 10652 10655 10657 10659 10663 10666 10670 10674 10678 10684 10689 10694 10699 10705 10711 10716 10720 10728 10735 10740 10746 10754 10760 10766 10774 10780 10783 10789 10797 10805 10814 10818 10820 10828 10837 10842 10846 10852 10860 10868 10873 10877 10884 10890 10894 10901 10906 10910 10916 10924 10932 10938 10943 10948 10951 10955 10961 10967 10971 10974 10978 10981 10985 10990 10993 10996 10998 11000 11003 11005 11006 11008 11010 11012 11014 11016
10659 10654 10651 10649 10647 10646 10645 10645 10645 10645 10646 10648 10649 10651 10653 10655 10658 10661 10665 10668 10673 10677 10683 10688 10693 10699 10705 10708 10713 10721 10727 10733 10741 10747 10753 10759 10766 10771 10776 10784 10792 10800 10807 10810 10813 10822 10829 10834 10842 10850 10855 10859 10863 10871 10878 10881 10887 10895 10901 10905 10912 10920 10926 10932 10939 10944 10946 10951 10957 10963 10967 10971 10974 10978 10983 10987 10991 10994 10996 10999 11001 11003 11005 11007 11009 11010 11012 11015
10655 10651 10648 10646 10644 10643 10643 10643 10643 10643 10645 10646 10647 10648 10650 10652 10654 10657 10660 10664 10668 10672 10677 10682 10687 10693 10697 10701 10708 10714 10720 10728 10734 10740 10745 10751 10757 10764 10772 10779 10786 10794 10800 10802 10806 10812 10819 10827 10836 10841 10844 10849 10858 10867 10871 10873 10882 10891 10896 10900 10908 10916 10923 10930 10936 10937 10939 10946 10953 10958 10963 10968 10972 10976 10980 10983 10987 10991 10994 10996 10998 11000 11002 11004 11006 11008 11010 11012
10652 10648 10645 10643 10642 10641 10641 10641 10642 10642 10643 10644 10645 10646 10647 10649 10651 10654 10656 10660 10664 10669 10673 10677 10681 10686 10691 10696 10702 10707 10713 10720 10726 10732 10737 10741 10747 10756 10764 10771 10779 10786 10790 10791 10795 10804 10813 10821 10827 10829 10833 10840 10852 10861 10865 10870 10880 10888 10893 10897 10904 10911 10917 10923 10926 10927 10932 10940 10947 10953 10959 10965 10969 10973 10976 10978 10982 10986 10990 10993 10996 10997 10999 11001 11003 11006 11009 11011
10650 10647 10644 10642 10641 10640 10640 10640 10641 10641 10642 10643 10643 10644 10645 10647 10649 10651 10654 10657 10661 10664 10668 10672 10676 10682 10686 10690 10695 10701 10707 10712 10717 10723 10728 10733 10739 10745 10753 10761 10770 10777 10779 10781 10788 10798 10807 10813 10818 10823 10827 10834 10845 10855 10860 10868 10878 10885 10890 10894 10900 10906 10910 10914 10918 10921 10928 10936 10942 10948 10954 10961 10966 10969 10972 10974 10978 10982 10986 10990 10993 10995 10997 10999 11002 11005 11008 11009
10648 10645 10643 10641 10640 10640 10639 10640 10640 10640 10640 10641 10642 10642 10643 10645 10646 10648 10651 10653 10656 10659 10662 10666 10671 10675 10680 10684 10689 10694 10698 10702 10708 10714 10719 10724 10729 10736 10745 10752 10760 10765 10769 10776 10785 10793 10801 10808 10814 10819 10824 10830 10840 10848 10854 10861 10871 10878 10883 10888 10894 10898 10902 10907 10911 10915 10922 10930 10936 10943 10949 10955 10959 10963 10967 10971 10975 10979 10983 10987 10990 10992 10994 10997 11000 11003 11005 11007
10647 10644 10642 10641 10640 10639 10639 10639 10639 10639 10639 10640 10640 10641 10642 10643 10644 10646 10647 10649 10651 10654 10658 10660 10664 10668 10673 10678 10683 10687 10690 10693 10699 10705 10710 10715 10722 10730 10737 10744 10750 10756 10763 10773 10781 10788 10797 10804 10809 10813 10819 10825 10832 10840 10847 10854 10861 10870 10876 10882 10887 10891 10895 10899 10902 10908 10917 10924 10931 10939 10944 10948 10953 10958 10963 10968 10972 10975 10978 10982 10986 10989 10992 10995 10998 11000 11002 11004
10645 10643 10641 10640 10639 10639 10638 10638 10638 10638 10638 10638 10638 10639 10640 10641 10642 10643 10644 10646 10648 10650 10653 10655 10658 10662 10666 10671 10675 10678 10682 10686 10692 10698 10703 10709 10717 10724 10730 10737 10745 10753 10762 10771 10777 10785 10793 10797 10801 10807 10813 10819 10825 10833 10841 10846 10854 10863 10870 10874 10879 10884 10888 10892 10896 10905 10915 10922 10928 10935 10939 10943 10948 10953 10958 10963 10967 10971 10974 10978 10982 10987 10991 10994 10996 10997 10999 11001
10644 10642 10640 10639 10638 10638 10637 10637 10637 10636 10636 10636 10637 10637 10638 10639 10640 10641 10642 10643 10645 10646 10647 10650 10653 10657 10661 10666 10669 10672 10678 10683 10688 10693 10700 10707 10713 10718 10726 10736 10745 10753 10760 10767 10774 10780 10785 10789 10795 10801 10806 10812 10818 10826 10834 10839 10847 10856 10862 10867 10873 10878 10883 10888 10895 10903 10911 10917 10924 10929 10934 10939 10944 10947 10952 10958 10962 10967 10971 10976 10980 10984 10988 10991 10993 10995 10996 10998
10643 10641 10639 10638 10637 10636 10636 10636 10635 10635 10634 10634 10635 10635 10635 10636 10637 10639 10640 10640 10641 10641 10642 10644 10647 10652 10657 10661 10664 10668 10675 10680 10684 10690 10698 10705 10710 10716 10725 10733 10740 10747 10754 10761 10767 10771 10775 10781 10788 10793 10799 10805 10812 10820 10827 10833 10842 10850 10855 10860 10867 10872 10878 10885 10891 10898 10904 10910 10916 10922 10928 10933 10936 10941 10947 10953 10959 10965 10969 10972 10976 10980 10984 10987 10989 10991 10993 10995
10641 10639 10637 10636 10635 10635 10634 10634 10633 10633 10632 10632 10633 10633 10633 10633 10633 10635 10636 10637 10636 10636 10637 10639 10642 10647 10652 10655 10658 10663 10668 10671 10676 10684 10693 10699 10705 10713 10720 10726 10733 10740 10747 10753 10758 10763 10769 10775 10781 10786 10792 10799 10805 10813 10820 10827 10836 10844 10849 10854 10860 10865 10871 10878 10885 10891 10898 10903 10909 10915 10922 10926 10929 10935 10942 10948 10956 10962 10965 10968 10972 10976 10980 10982 10984 10988 10990 10993
10639 10637 10636 10634 10633 10632 10632 10632 10632 10631 10631 10630 10631 10631 10630 10629 10629 10631 10632 10632 10631 10630 10631 10634 10638 10642 10646 10649 10652 10656 10659 10663 10669 10677 10684 10691 10699 10706 10712 10719 10727 10733 10739 10745 10750 10756 10763 10769 10774 10779 10787 10794 10800 10806 10813 10819 10826 10834 10841 10847 10853 10859 10866 10872 10878 10885 10892 10899 10904 10910 10916 10920 10924 10931 10937 10943 10950 10955 10959 10963 10967 10972 10974 10976 10979 10983 10986 10989
10638 10635 10633 10632 10631 10630 10629 10629 10629 10629 10628 10628 10628 10628 10627 10626 10625 10625 10627 10627 10625 10624 10626 10628 10632 10636 10640 10643 10646 10649 10652 10657 10663 10669 10674 10682 10691 10698 10704 10712 10720 10726 10732 10739 10744 10750 10756 10761 10767 10774 10781 10787 10791 10798 10804 10810 10816 10824 10832 10839 10846 10854 10861 10866 10872 10880 10887 10893 10898 10903 10909 10914 10918 10925 10931 10937 10943 10949 10953 10958 10963 10966 10966 10969 10975 10980 10983 10986
10636 10634 10631 10630 10629 10628 10628 10627 10627 10627 10626 10626 10625 10624 10623 10621 10619 10619 10620 10620 10618 10618 10619 10621 10625 10630 10634 10636 10638 10641 10645 10651 10657 10663 10668 10675 10682 10689 10697 10705 10712 10719 10725 10731 10737 10743 10749 10754 10761 10768 10773 10778 10783 10791 10797 10802 10808 10815 10823 10832 10840 10849 10855 10860 10866 10873 10879 10885 10890 10896 10902 10908 10914 10920 10926 10930 10937 10943 10948 10952 10956 10958 10959 10964 10971 10977 10980 10984
10633 10631 10629 10628 10627 10626 10626 10625 10624 10624 10624 10623 10622 10621 10619 10616 10613 10612 10612 10611 10610 10610 10611 10613 10617 10622 10626 10628 10630 10633 10638 10645 10651 10657 10664 10670 10676 10681 10689 10697 10704 10711 10718 10724 10730 10737 10742 10747 10753 10759 10764 10769 10776 10784 10789 10795 10801 10806 10813 10825 10835 10844 10851 10856 10860 10865 10872 10879 10885 10891 10896 10902 10908 10914 10918 10924 10930 10936 10940 10945 10949 10951 10954 10959 10968 10973 10977 10980
10630 10628 10627 10626 10625 10625 10624 10622 10621 10621 10620 10620 10618 10616 10614 10611 10608 10605 10604 10603 10602 10602 10603 10606 10609 10613 10617 10621 10624 10627 10633 10640 10647 10653 10659 10665 10670 10676 10682 10689 10696 10703 10710 10716 10723 10730 10735 10741 10746 10750 10756 10762 10769 10777 10783 10787 10792 10797 10807 10821 10830 10837 10845 10850 10854 10860 10867 10874 10882 10887 10891 10896 10901 10907 10912 10917 10922 10927 10932 10938 10942 10945 10949 10955 10963 10969 10974 10977
10627 10625 10624 10623 10623 10622 10621 10620 10619 10618 10617 10616 10615 10612 10609 10606 10602 10599 10598 10597 10596 10595 10596 10599 10601 10605 10609 10613 10617 10620 10626 10633 10641 10647 10653 10658 10664 10672 10678 10683 10689 10695 10701 10708 10715 10722 10729 10735 10739 10744 10750 10757 10764 10773 10779 10781 10786 10793 10804 10815 10823 10829 10837 10843 10848 10856 10864 10871 10878 10883 10886 10890 10894 10900 10906 10911 10915 10920 10925 10931 10935 10939 10943 10949 10955 10961 10967 10971
10626 10623 10621 10620 10620 10619 10618 10617 10616 10615 10614 10613 10611 10608 10605 10601 10598 10595 10593 10592 10591 10590 10591 10592 10594 10598 10602 10606 10610 10613 10619 10626 10633 10640 10646 10652 10660 10667 10672 10677 10682 10687 10693 10699 10707 10715 10721 10726 10732 10737 10743 10750 10757 10767 10772 10774 10781 10790 10798 10807 10814 10822 10830 10836 10841 10850 10859 10867 10873 10878 10882 10886 10889 10893 10898 10902 10907 10913 10918 10923 10928 10932 10937 10943 10948 10953 10960 10964
10623 10621 10619 10618 10617 10617 10616 10615 10614 10613 10611 10610 10608 10604 10601 10597 10594 10591 10589 10588 10586 10585 10585 10587 10589 10592 10595 10599 10603 10607 10613 10619 10626 10633 10640 10646 10654 10660 10665 10669 10673 10678 10685 10692 10700 10708 10713 10719 10725 10729 10735 10742 10749 10757 10763 10767 10775 10785 10792 10799 10806 10815 10822 10827 10833 10842 10851 10859 10865 10871 10876 10880 10883 10886 10890 10895 10899 10905 10911 10916 10921 10925 10930 10936 10941 10947 10953 10957
10621 10619 10618 10616 10615 10614 10614 10613 10612 10611 10609 10606 10604 10601 10597 10594 10590 10587 10585 10583 10581 10580 10581 10582 10584 10587 10590 10593 10596 10601 10607 10613 10620 10626 10632 10639 10646 10652 10656 10660 10665 10670 10676 10684 10692 10699 10704 10710 10716 10721 10728 10735 10743 10750 10756 10762 10771 10779 10786 10792 10800 10808 10815 10819 10825 10834 10842 10849 10856 10863 10868 10872 10876 10879 10882 10888 10893 10898 10904 10909 10913 10917 10922 10927 10933 10940 10946 10951
10618 10617 10616 10614 10612 10612 10611 10610 10609 10608 10606 10604 10601 10598 10594 10591 10587 10584 10582 10580 10578 10577 10578 10579 10580 10582 10585 10587 10591 10596 10601 10606 10612 10618 10624 10632 10638 10644 10648 10652 10657 10662 10669 10677 10684 10689 10695 10701 10707 10714 10722 10729 10736 10744 10750 10757 10765 10773 10779 10785 10793 10799 10804 10810 10818 10827 10835 10841 10848 10854 10859 10864 10869 10872 10876 10881 10887 10892 10896 10899 10903 10908 10913 10919 10925 10932 10938 10944
10616 10614 10613 10611 10610 10610 10608 10607 10606 10605 10603 10601 10599 10596 10592 10588 10584 10581 10579 10577 10576 10575 10576 10577 10578 10580 10581 10583 10587 10592 10596 10601 10606 10611 10618 10624 10630 10635 10640 10644 10650 10656 10663 10670 10677 10682 10688 10694 10700 10708 10716 10722 10729 10737 10744 10751 10758 10765 10771 10778 10786 10791 10795 10802 10810 10818 10826 10833 10838 10844 10849 10854 10860 10865 10869 10873 10877 10883 10887 10890 10894 10900 10905 10910 10917 10924 10931 10936
10613 10611 10610 10608 10608 10607 10606 10605 10604 10603 10601 10600 10597 10594 10590 10586 10583 10579 10577 10575 10574 10574 10575 10575 10576 10577 10579 10581 10584 10588 10592 10597 10601 10606 10612 10618 10624 10629 10633 10638 10644 10651 10658 10665 10671 10677 10684 10688 10692 10699 10706 10713 10721 10730 10737 10744 10751 10757 10763 10770 10778 10783 10787 10794 10802 10809 10815 10821 10827 10834 10839 10843 10849 10855 10859 10862 10865 10871 10876 10881 10887 10891 10896 10902 10909 10916 10922 10928
10610 10609 10607 10606 10605 10604 10603 10603 10602 10601 10600 10598 10595 10592 10588 10584 10581 10578 10576 10574 10573 10573 10573 10573 10574 10575 10577 10579 10582 10586 10590 10593 10597 10602 10607 10613 10618 10624 10629 10634 10640 10646 10652 10659 10665 10672 10679 10682 10685 10691 10698 10705 10714 10722 10729 10737 10743 10748 10753 10760 10769 10774 10778 10785 10792 10799 10805 10811 10817 10822 10826 10832 10839 10845 10850 10852 10854 10858 10865 10872 10878 10882 10887 10894 10901 10907 10913 10919